Погода в Суздале

Россия / Владимирская область     56°25′11″N   40°26′58″E
темп.,
°C
ветер,
м/с
пор.,
м/с
влажн.,
%
обл.,
%
осадки,
мм/ч
давл.,
гПа
погр.,
м
26 июля, пн
пн2600:00+16ююз225299 0.0 102217
03:00+16зюз2454100 0.0 102288
06:00+16з265699 0.0 1022178
09:00+22з35425 0.0 1022882
12:00+25зсз463294 0.0 10222664
15:00+24з453593 0.0 10211517
18:00+24з3540100 0.0 10201395
21:00+19зюз365872 0.0 102192
27 июля, вт
вт2700:00+19з3557100 0.0 1021120
03:00+15зсз35768 0.0 102179
06:00+16сз25705 0.0 1022138
09:00+24ссз23455 0.0 1021667
12:00+27сз453494 0.0 10202743
15:00+26з233940 0.1 10191077
18:00+23в115262 0.4 1018126
21:00+17св1178100 0.4 101920
28 июля, ср
ср2800:00+16ююв118482 0.3 101811
03:00+16юз228242 0.4 101813
06:00+17в11803 0.0 101743
09:00+23ююв22540 0.0 1016516
12:00+28юз34376 0.0 10141860
15:00+29зюз453197 0.0 10123082
18:00+19зюз61280100 0.8 1012298
21:00+18зюз4792100 2.8 1011173
29 июля, чт
чт2900:00+17ю2790100 0.8 1010249
03:00+16юв4698100 3.1 1008271
06:00+17юв4796100 0.6 1006394
09:00+17юв2497100 1.8 1005299
12:00+18ю2394100 0.5 1005280
15:00+19з369398 2.0 1004404
18:00+21зсз478571 0.8 1004720
21:00+17з36963 1.5 1005140
30 июля, пт
пт3000:00+17зюз359399 0.0 100597
03:00+16з410920 0.0 1006194
06:00+16з310870 0.0 1007252
09:00+22зсз611545 0.0 1008955
12:00+26з69375 0.0 10081715
15:00+28з710357 0.0 10082831
18:00+27з58390 0.0 10081987
21:00+21зюз3759100 0.0 1008111